Location: Red Deer
(52.2681°N, 113.8112°W)
Time: 02:54:52
(UTC-07:00)

BlueWalker 3 - Pass Details

Date: 30 November 2022
Orbit: 499 x 517 km, 53.2° (Epoch: 29 January)

Event Time Altitude Azimuth Distance (km) Brightness Sun altitude
Rises 17:23:53 0° 245° (WSW) 2,628 8.2 -8.4°
Reaches altitude 10° 17:26:06 10° 243° (WSW) 1,739 6.4 -8.7°
Maximum altitude 17:30:01 71° 159° (SSE) 546 2.1 -9.2°
Enters shadow 17:33:27 13° 77° (ENE) 1,544 3.8 -9.7°
